Location: New Greens
(51.7702°N, 0.3379°W)
Time: 14:14:48
(UTC+00:00)

Envisat - Visible Passes

Search period start: 19 April 2019 00:00
Search period end: 29 April 2019 00:00
Orbit: 764 x 766 km, 98.2° (Epoch: 19 April)

Date Brightness Start Highest point End Pass type
(mag) Time Alt. Az. Time Alt. Az. Time Alt. Az.
19 Apr 5.7 19:43:27 10° SW 19:47:14 21° W 19:51:03 10° NW visible
21 Apr 6.0 20:10:52 10° WSW 20:13:08 13° W 20:15:24 10° WNW visible
24 Apr 5.8 19:58:41 10° WSW 20:01:44 16° W 20:04:48 10° NW visible
